Date String (YYYY-MM-DD hh:mm:ss) UTC,Instrument flags,absolute air pressure of the measurement (hPa),sample flow rate (lpm),inlet stack bypass flow (lpm),air temperature of the measurement (°C),ambient temperature measured by the external sensor (°C),aerosol sample conditioner tube jacket temperature (°C),OPC LED temperature (°C),internal box temperature (°C),relative humidity of the measurement (%),span deviation,mass concentration of particles derived from Lorenz-Mie calculation of OPC scattering (μg/m³),mass concentration of particles derived from Lorenz-Mie calculation of OPC scattering (μg/m³),mass concentration of particles derived from Lorenz-Mie calculation of OPC scattering (μg/m³)
DateTimeUTC,F1_M11,P_M11,Q1_M11,Q2_M11,T1_M11,T2_M11,T3_M11,T4_M11,T5_M11,U1_M11,ZSPAN_M11,X2_M11,X0_M11,X1_M11
2023-11-15 23:00:00,SystemResetWarning,0830.0,5.01,000.00,028.0,023.3,000.0,036.2,028.9,6.4,0000.0,0002.99,0012.45,0001.84
2023-11-15 23:01:00,SystemResetWarning,0830.0,4.99,000.00,027.7,023.7,000.0,036.1,028.5,6.4,0000.0,0002.96,0012.17,0001.84
2023-11-15 23:02:00,SystemResetWarning,0830.0,5.01,000.00,027.6,024.3,000.0,036.1,028.6,6.5,0000.0,0002.94,0011.80,0001.84
2023-11-15 23:03:00,SystemResetWarning,0830.0,5.00,000.00,027.6,024.7,000.0,036.0,028.7,6.5,0000.0,0002.97,0011.95,0001.84
2023-11-15 23:04:00,SystemResetWarning,0830.1,4.98,000.00,027.6,025.1,000.0,036.0,028.8,6.5,0000.0,0003.00,0011.53,0001.84
2023-11-15 23:05:00,SystemResetWarning,0830.0,5.00,000.00,027.6,025.5,000.0,036.0,028.9,6.5,0000.0,0003.06,0011.88,0001.84
2023-11-15 23:06:00,SystemResetWarning,0830.0,5.02,000.00,027.6,025.8,000.0,035.9,029.0,6.5,0000.0,0003.09,0011.71,0001.84
2023-11-15 23:07:00,SystemResetWarning,0830.0,4.98,000.00,027.6,026.0,000.0,035.9,029.0,6.5,0000.0,0003.05,0010.36,0001.84
2023-11-15 23:08:00,SystemResetWarning,0830.0,5.00,000.00,027.6,026.2,000.0,035.9,029.1,6.5,0000.0,0003.05,0009.64,0001.84
2023-11-15 23:09:00,SystemResetWarning,0830.0,5.00,000.00,027.7,026.4,000.0,035.9,029.2,6.9,0000.0,0003.05,0009.02,0001.84
2023-11-15 23:10:00,SystemResetWarning,0830.0,5.00,000.00,027.7,026.5,000.0,035.9,029.2,7.4,0000.0,0003.07,0009.46,0001.85
2023-11-15 23:11:00,SystemResetWarning,0830.0,5.01,000.00,027.7,026.7,000.0,036.0,029.3,7.4,0000.0,0003.01,0009.51,0001.85
2023-11-15 23:12:00,SystemResetWarning,0830.0,5.00,000.00,027.8,026.8,000.0,036.0,029.3,7.4,0000.0,0003.01,0009.19,0001.86
2023-11-15 23:13:00,SystemResetWarning,0830.0,5.01,000.00,027.8,026.9,000.0,036.0,029.4,7.7,0000.0,0003.04,0008.90,0001.87
2023-11-15 23:14:00,SystemResetWarning,0830.0,5.00,000.00,027.9,027.0,000.0,036.0,029.4,7.8,0000.0,0003.03,0008.77,0001.88
2023-11-15 23:15:00,SystemResetWarning,0830.0,4.99,000.00,027.9,027.1,000.0,036.0,029.5,7.8,0000.0,0003.06,0008.98,0001.91
2023-11-15 23:16:00,SystemResetWarning,0830.0,4.99,000.00,027.9,027.1,000.0,036.1,029.5,8.0,0000.0,0003.18,0010.80,0001.98
2023-11-15 23:17:00,SystemResetWarning,0830.0,5.00,000.00,028.0,027.2,000.0,036.1,029.6,8.0,0000.0,0003.25,0011.46,0002.06
2023-11-15 23:18:00,SystemResetWarning,0830.0,5.00,000.00,028.0,027.2,000.0,036.1,029.6,8.0,0000.0,0003.34,0012.88,0002.14
2023-11-15 23:19:00,SystemResetWarning,0830.0,5.00,000.00,028.1,027.3,000.0,036.1,029.6,7.9,0000.0,0003.45,0013.53,0002.22
2023-11-15 23:20:00,SystemResetWarning,0830.0,5.00,000.00,028.1,027.3,000.0,036.2,029.7,7.5,0000.0,0003.59,0015.18,0002.32
2023-11-15 23:21:00,SystemResetWarning,0830.0,5.00,000.00,028.1,027.4,000.0,036.2,029.7,7.5,0000.0,0003.71,0016.00,0002.41
2023-11-15 23:22:00,SystemResetWarning,0830.0,5.00,000.00,028.2,027.4,000.0,036.2,029.7,7.5,0000.0,0003.90,0018.06,0002.51
2023-11-15 23:23:00,SystemResetWarning,0829.9,5.00,000.00,028.2,027.5,000.0,036.2,029.8,7.4,0000.0,0004.03,0019.92,0002.61
2023-11-15 23:24:00,SystemResetWarning,0829.9,5.00,000.00,028.2,027.5,000.0,036.3,029.8,7.6,0000.0,0004.16,0020.76,0002.71
2023-11-15 23:25:00,SystemResetWarning,0829.9,5.00,000.00,028.3,027.5,000.0,036.3,029.8,7.7,0000.0,0004.31,0022.46,0002.81
2023-11-15 23:26:00,SystemResetWarning,0829.9,5.00,000.00,028.3,027.6,000.0,036.3,029.9,7.7,0000.0,0004.44,0023.35,0002.86
2023-11-15 23:27:00,SystemResetWarning,0829.9,5.00,000.00,028.3,027.6,000.0,036.4,029.9,7.7,0000.0,0004.43,0022.17,0002.88
2023-11-15 23:28:00,SystemResetWarning,0829.8,5.00,000.00,028.4,027.6,000.0,036.4,029.9,7.7,0000.0,0004.53,0021.60,0002.91
2023-11-15 23:29:00,SystemResetWarning,0829.8,4.98,000.00,028.4,026.5,000.0,036.4,029.8,7.7,0000.0,0004.58,0021.30,0002.92
2023-11-15 23:30:00,SystemResetWarning,0829.8,5.00,000.00,028.2,024.0,000.0,036.4,029.4,7.8,0000.0,0004.66,0021.45,0002.97
2023-11-15 23:31:00,SystemResetWarning,0829.8,5.01,000.00,028.1,023.2,000.0,036.3,029.1,7.9,0000.0,0004.73,0020.58,0003.05
2023-11-15 23:32:00,SystemResetWarning,0829.7,5.01,000.00,027.9,023.4,000.0,036.2,028.6,8.0,0000.0,0004.76,0019.74,0003.11
2023-11-15 23:33:00,SystemResetWarning,0829.7,5.00,000.00,027.7,023.9,000.0,036.2,028.5,8.1,0000.0,0004.73,0017.59,0003.13
2023-11-15 23:34:00,SystemResetWarning,0829.7,5.00,000.00,027.6,024.5,000.0,036.1,028.6,8.2,0000.0,0004.76,0018.56,0003.14
2023-11-15 23:35:00,SystemResetWarning,0829.8,4.99,000.00,027.6,024.9,000.0,036.1,028.7,8.2,0000.0,0004.78,0018.77,0003.15
2023-11-15 23:36:00,SystemResetWarning,0829.8,5.00,000.00,027.6,025.3,000.0,036.0,028.8,8.2,0000.0,0004.80,0018.70,0003.19
2023-11-15 23:37:00,SystemResetWarning,0829.8,5.01,000.00,027.6,025.6,000.0,036.0,028.9,8.2,0000.0,0004.88,0018.84,0003.23
2023-11-15 23:38:00,SystemResetWarning,0829.7,4.99,000.00,027.6,025.9,000.0,036.0,029.0,8.2,0000.0,0005.04,0019.38,0003.30
2023-11-15 23:39:00,SystemResetWarning,0829.7,4.98,000.00,027.6,026.1,000.0,036.0,029.0,8.2,0000.0,0005.16,0020.69,0003.35
2023-11-15 23:40:00,SystemResetWarning,0829.7,5.00,000.00,027.6,026.3,000.0,036.0,029.1,8.2,0000.0,0005.27,0022.54,0003.41
2023-11-15 23:41:00,SystemResetWarning,0829.7,5.01,000.00,027.7,026.4,000.0,036.0,029.2,8.2,0000.0,0005.30,0022.40,0003.45
2023-11-15 23:42:00,SystemResetWarning,0829.7,5.01,000.00,027.7,026.5,000.0,036.0,029.2,8.2,0000.0,0005.31,0022.85,0003.46
2023-11-15 23:43:00,SystemResetWarning,0829.8,5.01,000.00,027.7,026.6,000.0,036.0,029.2,8.2,0000.0,0005.36,0023.11,0003.47
2023-11-15 23:44:00,SystemResetWarning,0829.8,5.00,000.00,027.7,026.7,000.0,036.0,029.2,8.3,0000.0,0005.44,0025.54,0003.48
2023-11-15 23:45:00,SystemResetWarning,0829.8,4.99,000.00,027.8,026.8,000.0,036.0,029.3,8.3,0000.0,0005.54,0026.31,0003.53
2023-11-15 23:46:00,SystemResetWarning,0829.8,5.00,000.00,027.8,026.8,000.0,036.0,029.3,8.3,0000.0,0005.63,0026.40,0003.58
2023-11-15 23:47:00,SystemResetWarning,0829.8,5.00,000.00,027.8,026.9,000.0,036.0,029.3,8.1,0000.0,0005.75,0027.66,0003.63
2023-11-15 23:48:00,SystemResetWarning,0829.8,4.99,000.00,027.8,026.9,000.0,036.0,029.4,8.0,0000.0,0005.81,0027.94,0003.70
2023-11-15 23:49:00,SystemResetWarning,0829.8,5.00,000.00,027.8,026.9,000.0,036.1,029.4,7.8,0000.0,0005.84,0029.05,0003.76
2023-11-15 23:50:00,SystemResetWarning,0829.8,5.00,000.00,027.9,026.9,000.0,036.1,029.4,7.8,0000.0,0005.87,0028.33,0003.80
2023-11-15 23:51:00,SystemResetWarning,0829.8,5.00,000.00,027.9,027.0,000.0,036.1,029.4,7.8,0000.0,0006.01,0027.66,0003.89
2023-11-15 23:52:00,SystemResetWarning,0829.8,5.00,000.00,027.9,027.0,000.0,036.1,029.4,7.7,0000.0,0006.08,0029.99,0003.97
2023-11-15 23:53:00,SystemResetWarning,0829.8,5.00,000.00,027.9,027.0,000.0,036.1,029.4,7.6,0000.0,0006.16,0030.04,0004.01
2023-11-15 23:54:00,SystemResetWarning,0829.8,5.00,000.00,027.9,027.0,000.0,036.1,029.4,7.6,0000.0,0006.17,0031.42,0004.03
2023-11-15 23:55:00,SystemResetWarning,0829.8,5.00,000.00,027.9,027.0,000.0,036.2,029.4,7.6,0000.0,0006.10,0030.91,0004.02
2023-11-15 23:56:00,SystemResetWarning,0829.8,4.99,000.00,028.0,027.0,000.0,036.2,029.4,7.6,0000.0,0006.08,0029.72,0003.99
2023-11-15 23:57:00,SystemResetWarning,0829.8,5.00,000.00,028.0,027.0,000.0,036.2,029.4,7.5,0000.0,0005.99,0029.43,0003.96
2023-11-15 23:58:00,SystemResetWarning,0829.7,5.00,000.00,028.0,027.0,000.0,036.2,029.5,7.5,0000.0,0005.95,0028.32,0003.91
2023-11-15 23:59:00,SystemResetWarning,0829.8,5.00,000.00,028.0,027.0,000.0,036.2,029.5,7.4,0000.0,0005.79,0026.95,0003.81
